SB KEPS @ AMSAT $ORB13269.O Orbital Elements 13269.OSCAR
HR AMSAT ORBITAL ELEMENTS FOR OSCAR SATELLITES FROM WA5QGD FORT WORTH,TX September 26, 2013 BID: ORB13269.O TO ALL RADIO AMATEURS BT
Satellite: AO-07 Catalog number: 07530 Epoch time: 13269.47276622 Element set: 786 Inclination: 101.4424 deg RA of node: 255.3381 deg Eccentricity: 0.0012376 Arg of perigee: 089.9962 deg Mean anomaly: 025.2108 deg Mean motion: 12.53598351 rev/day Decay rate: -1.8e-07 rev/day^2 Epoch rev: 77847 Checksum: 319
Satellite: FO-29 Catalog number: 24278 Epoch time: 13268.64630245 Element set: 208 Inclination: 098.5436 deg RA of node: 313.7220 deg Eccentricity: 0.0349514 Arg of perigee: 263.7482 deg Mean anomaly: 210.9593 deg Mean motion: 13.53006132 rev/day Decay rate: -2.5e-07 rev/day^2 Epoch rev: 84489 Checksum: 310
Satellite: SO-33 Catalog number: 25509 Epoch time: 13268.98305779 Element set: 590 Inclination: 031.4318 deg RA of node: 216.9006 deg Eccentricity: 0.0350852 Arg of perigee: 320.3726 deg Mean anomaly: 100.7060 deg Mean motion: 14.29130716 rev/day Decay rate: 6.23e-06 rev/day^2 Epoch rev: 77932 Checksum: 296
Satellite: RS-22 Catalog number: 27939 Epoch time: 13269.57269358 Element set: 802 Inclination: 097.7994 deg RA of node: 092.1457 deg Eccentricity: 0.0012315 Arg of perigee: 223.5325 deg Mean anomaly: 136.4896 deg Mean motion: 14.64577287 rev/day Decay rate: 4.76e-06 rev/day^2 Epoch rev: 53413 Checksum: 348
Satellite: VO-52 Catalog number: 28650 Epoch time: 13269.79860579 Element set: 537 Inclination: 097.5664 deg RA of node: 283.1904 deg Eccentricity: 0.0024203 Arg of perigee: 307.5716 deg Mean anomaly: 104.3850 deg Mean motion: 14.84146164 rev/day Decay rate: 1.003e-05 rev/day^2 Epoch rev: 45415 Checksum: 311
Satellite: HO-68 Catalog number: 36122 Epoch time: 13269.74716771 Element set: 937 Inclination: 100.2950 deg RA of node: 324.1816 deg Eccentricity: 0.0007712 Arg of perigee: 120.8927 deg Mean anomaly: 239.2947 deg Mean motion: 13.16306927 rev/day Decay rate: -4.4e-07 rev/day^2 Epoch rev: 18177 Checksum: 314
/EX SB KEPS @ AMSAT $ORB13269.D Orbital Elements 13269.MICROS
HR AMSAT ORBITAL ELEMENTS FOR THE MICROSATS FROM WA5QGD FORT WORTH,TX September 26, 2013 BID: ORB13269.D TO ALL RADIO AMATEURS BT
Satellite: UO-11 Catalog number: 14781 Epoch time: 13269.72487692 Element set: 295 Inclination: 097.8920 deg RA of node: 329.5281 deg Eccentricity: 0.0007656 Arg of perigee: 324.4998 deg Mean anomaly: 035.5704 deg Mean motion: 14.81016768 rev/day Decay rate: 3.80e-06 rev/day^2 Epoch rev: 58896 Checksum: 356
Satellite: AO-16 Catalog number: 20439 Epoch time: 13269.79769713 Element set: 849 Inclination: 098.4783 deg RA of node: 207.4978 deg Eccentricity: 0.0010401 Arg of perigee: 212.4575 deg Mean anomaly: 177.2719 deg Mean motion: 14.32207366 rev/day Decay rate: 7.8e-07 rev/day^2 Epoch rev: 23678 Checksum: 344
Satellite: LO-19 Catalog number: 20442 Epoch time: 13268.91522756 Element set: 786 Inclination: 098.4481 deg RA of node: 208.1020 deg Eccentricity: 0.0011500 Arg of perigee: 205.4184 deg Mean anomaly: 194.8421 deg Mean motion: 14.32415974 rev/day Decay rate: 5.9e-07 rev/day^2 Epoch rev: 23685 Checksum: 296
Satellite: AO-27 Catalog number: 22825 Epoch time: 13269.82312126 Element set: 488 Inclination: 098.6275 deg RA of node: 212.8136 deg Eccentricity: 0.0008101 Arg of perigee: 358.4198 deg Mean anomaly: 021.7773 deg Mean motion: 14.29591692 rev/day Decay rate: 7.5e-07 rev/day^2 Epoch rev: 4315 Checksum: 313
Satellite: IO-26 Catalog number: 22826 Epoch time: 13269.12232612 Element set: 243 Inclination: 098.6216 deg RA of node: 212.3861 deg Eccentricity: 0.0008530 Arg of perigee: 352.8649 deg Mean anomaly: 128.0078 deg Mean motion: 14.29878666 rev/day Decay rate: 9.8e-07 rev/day^2 Epoch rev: 4318 Checksum: 312
Satellite: GO-32 Catalog number: 25397 Epoch time: 13268.85452554 Element set: 170 Inclination: 098.4286 deg RA of node: 232.2967 deg Eccentricity: 0.0001628 Arg of perigee: 051.8284 deg Mean anomaly: 006.9588 deg Mean motion: 14.23360108 rev/day Decay rate: 2.9e-07 rev/day^2 Epoch rev: 79026 Checksum: 320
Satellite: NO-44 Catalog number: 26931 Epoch time: 13269.46969025 Element set: 427 Inclination: 067.0541 deg RA of node: 358.4090 deg Eccentricity: 0.0007605 Arg of perigee: 266.6150 deg Mean anomaly: 220.4879 deg Mean motion: 14.29960832 rev/day Decay rate: 1.2e-07 rev/day^2 Epoch rev: 62590 Checksum: 312
Satellite: SO-50 Catalog number: 27607 Epoch time: 13269.75795260 Element set: 182 Inclination: 064.5569 deg RA of node: 314.8944 deg Eccentricity: 0.0034593 Arg of perigee: 125.2364 deg Mean anomaly: 341.8805 deg Mean motion: 14.73082675 rev/day Decay rate: 3.27e-06 rev/day^2 Epoch rev: 57867 Checksum: 342
Satellite: CO-55 Catalog number: 27844 Epoch time: 13268.02986280 Element set: 749 Inclination: 098.7028 deg RA of node: 275.6578 deg Eccentricity: 0.0008815 Arg of perigee: 325.8118 deg Mean anomaly: 094.8336 deg Mean motion: 14.21271569 rev/day Decay rate: 1.70e-06 rev/day^2 Epoch rev: 53091 Checksum: 341
Satellite: CO-57 Catalog number: 27848 Epoch time: 13269.82274427 Element set: 693 Inclination: 098.7114 deg RA of node: 276.9916 deg Eccentricity: 0.0008754 Arg of perigee: 327.0110 deg Mean anomaly: 158.2079 deg Mean motion: 14.20991490 rev/day Decay rate: 1.57e-06 rev/day^2 Epoch rev: 53109 Checksum: 336
Satellite: AO-51 Catalog number: 28375 Epoch time: 13268.78431892 Element set: 663 Inclination: 098.2135 deg RA of node: 220.2643 deg Eccentricity: 0.0084568 Arg of perigee: 072.2679 deg Mean anomaly: 348.3109 deg Mean motion: 14.41161532 rev/day Decay rate: 1.64e-06 rev/day^2 Epoch rev: 48582 Checksum: 323
Satellite: CP3 Catalog number: 31129 Epoch time: 13269.17195804 Element set: 562 Inclination: 097.9071 deg RA of node: 256.1617 deg Eccentricity: 0.0101409 Arg of perigee: 112.9484 deg Mean anomaly: 015.6116 deg Mean motion: 14.53808782 rev/day Decay rate: 6.91e-06 rev/day^2 Epoch rev: 34166 Checksum: 304
Satellite: CO-65 Catalog number: 32785 Epoch time: 13269.45711409 Element set: 747 Inclination: 097.7404 deg RA of node: 324.0550 deg Eccentricity: 0.0013262 Arg of perigee: 340.3564 deg Mean anomaly: 134.4603 deg Mean motion: 14.84120299 rev/day Decay rate: 8.29e-06 rev/day^2 Epoch rev: 29289 Checksum: 315
Satellite: PRISM Catalog number: 33493 Epoch time: 13269.80532148 Element set: 214 Inclination: 098.2297 deg RA of node: 070.2010 deg Eccentricity: 0.0017230 Arg of perigee: 219.6775 deg Mean anomaly: 140.3196 deg Mean motion: 14.86506339 rev/day Decay rate: 2.463e-05 rev/day^2 Epoch rev: 25301 Checksum: 281
Satellite: SOHLA-1 Catalog number: 33496 Epoch time: 13269.32499662 Element set: 157 Inclination: 098.1452 deg RA of node: 025.1404 deg Eccentricity: 0.0006326 Arg of perigee: 012.8895 deg Mean anomaly: 044.5147 deg Mean motion: 14.70374517 rev/day Decay rate: 3.03e-06 rev/day^2 Epoch rev: 25073 Checksum: 293
Satellite: SO-67 Catalog number: 35870 Epoch time: 13269.89491517 Element set: 461 Inclination: 097.1851 deg RA of node: 295.0384 deg Eccentricity: 0.0001929 Arg of perigee: 030.1985 deg Mean anomaly: 051.9644 deg Mean motion: 15.28073042 rev/day Decay rate: 4.665e-05 rev/day^2 Epoch rev: 22378 Checksum: 334
Satellite: TISAT-1 Catalog number: 36799 Epoch time: 13269.69543841 Element set: 481 Inclination: 098.0313 deg RA of node: 354.9928 deg Eccentricity: 0.0015866 Arg of perigee: 097.7818 deg Mean anomaly: 262.5210 deg Mean motion: 14.83675906 rev/day Decay rate: 1.709e-05 rev/day^2 Epoch rev: 17362 Checksum: 351
Satellite: STUDSAT Catalog number: 36801 Epoch time: 13267.85679336 Element set: 685 Inclination: 098.0424 deg RA of node: 357.2693 deg Eccentricity: 0.0012182 Arg of perigee: 085.4076 deg Mean anomaly: 053.9737 deg Mean motion: 14.89493719 rev/day Decay rate: 7.291e-05 rev/day^2 Epoch rev: 17354 Checksum: 345
Satellite: ALMASAT-1 Catalog number: 38078 Epoch time: 13269.82330095 Element set: 646 Inclination: 069.4795 deg RA of node: 324.3295 deg Eccentricity: 0.0677480 Arg of perigee: 016.2068 deg Mean anomaly: 345.9656 deg Mean motion: 14.29183266 rev/day Decay rate: 2.2937e-04 rev/day^2 Epoch rev: 8374 Checksum: 350
Satellite: XATCOBEO Catalog number: 38082 Epoch time: 13269.82501399 Element set: 529 Inclination: 069.4681 deg RA of node: 286.4842 deg Eccentricity: 0.0524887 Arg of perigee: 355.3834 deg Mean anomaly: 004.2493 deg Mean motion: 14.68603215 rev/day Decay rate: 8.6547e-04 rev/day^2 Epoch rev: 8478 Checksum: 350
Satellite: SOMP Catalog number: 39135 Epoch time: 13269.24636915 Element set: 336 Inclination: 064.8787 deg RA of node: 251.0834 deg Eccentricity: 0.0002666 Arg of perigee: 228.6737 deg Mean anomaly: 131.4154 deg Mean motion: 15.00894074 rev/day Decay rate: 3.175e-05 rev/day^2 Epoch rev: 2399 Checksum: 312
Satellite: CUBEBUG-1 Catalog number: 39153 Epoch time: 13269.85406480 Element set: 442 Inclination: 098.0676 deg RA of node: 345.5754 deg Eccentricity: 0.0019578 Arg of perigee: 115.0158 deg Mean anomaly: 245.3088 deg Mean motion: 14.76621286 rev/day Decay rate: 9.19e-06 rev/day^2 Epoch rev: 2268 Checksum: 328
Satellite: ESTCUBE-1 Catalog number: 39161 Epoch time: 13269.71916629 Element set: 401 Inclination: 098.1239 deg RA of node: 347.4182 deg Eccentricity: 0.0010850 Arg of perigee: 144.6784 deg Mean anomaly: 215.5115 deg Mean motion: 14.69119643 rev/day Decay rate: 6.83e-06 rev/day^2 Epoch rev: 2090 Checksum: 299
/EX SB KEPS @ AMSAT $ORB13269.W Orbital Elements 13269.WEATHER
HR AMSAT ORBITAL ELEMENTS FOR WEATHER SATELLITES FROM WA5QGD FORT WORTH,TX September 26, 2013 BID: ORB13269.W TO ALL RADIO AMATEURS BT
Satellite: NOAA-10 Catalog number: 16969 Epoch time: 13269.54883878 Element set: 511 Inclination: 098.5394 deg RA of node: 295.1479 deg Eccentricity: 0.0011143 Arg of perigee: 310.8884 deg Mean anomaly: 202.4771 deg Mean motion: 14.27665599 rev/day Decay rate: 5.9e-07 rev/day^2 Epoch rev: 40640 Checksum: 344
